Theta_e
314 314 312 312 310 308 309 310 305 313 313 305 304 300 297 294 297 299 297 298 296 295 295 295 295 294 296 298 299 298 302 303 298 300 306 309 309 306 306 300 301 304 305 308
314 313 312 311 310 308 309 307 307 314 311 301 301 298 297 298 297 297 296 295 297 297 295 293 295 294 297 298 299 300 303 300 295 298 303 306 305 307 308 307 306 304 301 306
313 313 313 312 311 309 309 307 303 307 307 306 301 298 296 295 298 297 297 296 298 296 295 297 294 294 296 298 299 301 302 300 299 295 299 303 302 304 307 306 302 302 304 308
313 313 313 312 311 309 309 306 300 301 300 300 301 300 298 295 294 298 298 296 296 295 292 294 293 295 296 298 297 300 300 297 299 300 299 300 300 302 305 304 306 302 306 307
313 313 313 312 310 307 311 305 304 305 300 299 299 296 296 295 295 296 294 294 295 296 294 295 293 294 296 295 298 298 299 297 299 298 300 300 299 302 304 305 306 307 308 308
313 313 313 312 309 307 310 309 308 304 294 297 299 298 296 295 297 298 298 297 296 294 297 299 300 300 300 299 296 295 295 297 297 295 299 299 297 302 304 307 309 308 305 311
313 313 313 312 309 307 311 308 307 302 296 301 298 297 297 296 297 295 298 299 296 300 304 303 302 300 299 299 299 299 296 295 297 295 298 291 304 311 309 308 314 316 317 319
312 312 312 311 309 307 312 311 307 303 297 299 297 297 297 298 299 297 297 299 301 305 302 297 294 294 294 296 298 298 298 296 293 293 294 299 305 308 310 310 311 316 316 319
312 311 311 311 309 307 313 309 311 306 300 298 299 298 298 299 298 297 297 302 306 303 299 296 288 288 291 290 293 298 298 298 293 295 291 290 305 309 313 312 307 316 316 319
311 311 312 312 309 307 312 310 312 307 303 302 301 300 299 301 299 297 298 299 301 303 294 292 290 288 294 289 290 291 292 294 290 291 293 299 308 310 313 304 305 316 317 319
311 310 312 313 311 307 311 309 313 307 304 302 302 302 299 300 302 299 298 298 298 298 290 287 289 289 293 292 294 292 292 291 290 291 292 291 309 311 307 312 316 316 318 318
311 311 312 312 312 309 309 307 311 313 305 303 306 306 307 306 305 304 304 300 299 299 292 289 291 291 295 293 287 299 292 295 293 294 297 305 307 309 315 315 315 318 319 318
311 311 311 312 312 310 309 308 311 309 304 303 303 302 308 310 309 310 301 303 303 297 295 290 290 287 293 289 292 295 299 302 298 298 304 303 306 310 314 318 317 319 319 317
311 311 311 311 312 309 309 311 311 309 306 299 301 308 306 310 310 309 308 306 305 301 296 290 290 290 294 292 295 293 296 302 300 299 302 303 306 308 310 315 317 317 317 316
311 311 311 311 312 309 312 312 314 312 303 299 301 305 307 309 309 307 308 306 304 298 295 289 289 293 291 292 293 290 295 297 296 295 299 299 303 309 312 314 316 317 318 316
311 311 311 311 311 309 311 304 312 314 311 301 298 305 305 308 309 308 307 307 305 299 298 296 296 296 291 288 289 293 298 302 302 301 303 304 307 311 313 313 317 318 316 317
311 310 310 309 309 312 306 302 308 311 312 300 298 300 306 307 308 308 308 307 307 305 302 298 297 295 296 289 287 293 298 301 304 304 305 303 306 306 313 315 317 316 317 316
310 309 309 309 308 307 306 309 308 310 305 301 297 299 300 308 305 302 310 304 304 303 302 301 297 298 296 287 293 295 297 301 303 302 305 305 307 308 309 312 312 313 314 314
310 309 309 310 307 305 306 310 309 309 305 297 300 297 297 308 306 307 306 307 298 306 298 298 299 294 287 292 295 296 298 297 300 301 302 303 303 305 306 307 308 308 309 314
309 310 305 302 307 311 309 303 299 300 301 302 298 305 299 304 305 302 303 305 300 295 299 303 294 292 298 299 300 301 300 300 300 300 299 301 301 303 304 304 306 307 308 310
308 304 303 306 310 304 302 297 296 297 295 300 302 303 300 307 299 301 304 301 301 293 297 297 295 292 297 300 300 301 302 301 301 300 300 301 302 301 303 304 307 307 307 307
308 310 308 306 302 300 296 295 297 296 297 301 299 300 304 305 308 302 303 298 300 289 302 296 291 296 300 300 299 300 300 300 299 300 299 299 300 301 302 304 305 307 307 307
311 307 301 300 300 291 292 291 293 295 301 301 303 298 304 305 306 304 301 294 293 302 292 292 295 300 302 301 300 300 302 301 301 300 299 298 298 298 298 301 305 308 309 308
305 301 290 296 296 299 303 303 306 308 308 302 301 300 300 302 299 301 294 298 300 291 288 288 296 300 303 302 302 302 301 302 301 301 301 301 302 301 301 300 301 301 302 306
303 304 295 302 308 310 311 311 310 310 310 305 300 297 298 297 296 301 297 292 288 290 288 296 299 302 303 304 302 302 302 303 303 304 302 302 302 302 302 303 304 305 304 303
305 305 303 309 306 304 305 306 304 308 304 303 300 294 294 293 295 294 291 289 288 293 297 300 302 303 303 304 305 305 304 305 305 306 306 305 304 303 303 304 304 304 304 304
304 304 310 308 307 305 305 307 308 312 304 298 296 292 291 297 294 292 295 291 295 300 300 302 303 303 303 304 305 306 305 306 305 304 304 305 307 307 306 303 304 304 305 305
Wind_Speed
13 15 15 16 17 24 7 4 3 6 5 4 1 3 3 1 2 1 1 1 3 2 3 1 3 5 6 9 9 3 5 8 9 21 8 11 14 19 19 13 17 15 13 6
13 14 13 14 13 13 7 4 3 4 6 2 3 5 5 2 1 2 1 2 3 1 2 2 1 2 3 7 7 9 9 5 10 11 11 7 15 13 17 19 17 18 16 10
13 13 13 12 12 12 6 5 2 4 4 2 3 2 2 5 3 3 2 3 1 3 2 1 2 3 3 4 6 6 6 7 10 7 4 7 10 16 15 18 13 14 17 17
12 12 12 11 12 11 5 3 4 4 2 5 3 2 0 3 3 1 3 4 5 3 4 2 1 1 3 4 2 3 6 8 5 8 7 8 7 10 16 20 18 17 13 16
11 10 10 10 12 14 3 3 2 2 4 2 3 3 4 1 3 2 1 4 3 3 3 5 1 3 1 3 4 4 3 7 8 13 10 10 10 12 14 16 19 18 15 11
10 9 10 9 11 10 2 2 1 6 3 4 3 4 3 4 2 3 4 4 6 7 8 7 7 7 8 8 7 6 6 6 7 13 7 7 12 16 14 15 14 14 18 5
8 7 7 6 9 10 3 3 3 5 5 2 5 6 5 7 5 2 2 2 3 5 8 9 10 11 11 11 11 9 7 6 6 8 5 13 6 5 7 11 5 4 7 4
6 5 4 3 6 7 2 2 4 4 4 6 7 6 4 5 5 3 1 3 5 6 5 9 8 8 7 11 14 12 10 9 6 7 12 6 8 4 2 9 11 3 3 5
5 4 0 3 3 4 2 4 4 3 2 4 4 4 2 1 3 7 3 3 2 5 5 4 6 5 6 5 7 6 11 9 9 8 13 17 9 8 2 3 9 5 6 7
4 2 2 4 5 2 4 3 5 3 0 5 4 2 2 1 1 2 1 1 2 4 2 3 4 7 5 6 11 7 11 10 14 11 9 3 8 3 5 11 6 6 6 7
4 1 4 6 7 3 4 2 4 6 3 6 5 3 3 5 2 2 5 4 3 1 4 3 5 5 3 7 10 8 11 10 9 11 13 14 13 3 8 8 5 5 6 6
5 4 5 6 8 5 5 3 2 3 5 6 1 4 6 5 4 4 3 7 4 2 2 1 3 4 3 8 4 12 11 12 7 9 7 7 7 8 3 2 4 6 7 6
6 7 6 6 9 6 5 3 2 4 3 5 5 7 9 10 10 7 5 3 5 3 4 2 1 5 1 3 9 6 14 8 7 6 7 5 5 5 6 4 7 8 8 8
8 8 7 7 10 8 6 0 2 3 2 5 7 5 5 4 7 10 11 10 1 7 4 2 3 4 3 2 4 3 5 7 9 5 5 4 5 6 8 5 8 9 9 8
9 9 8 8 10 8 5 2 1 2 5 4 2 5 5 7 7 7 7 7 7 2 3 3 3 1 3 1 3 1 5 1 3 3 3 3 3 5 5 5 8 7 8 9
9 10 9 8 9 10 2 2 3 3 2 4 2 4 6 6 7 7 5 5 4 3 2 1 3 6 2 2 2 6 7 2 1 1 3 6 3 5 7 7 9 10 9 11
10 10 9 8 9 7 1 4 4 1 1 2 3 3 7 3 4 6 5 6 3 3 3 1 1 2 2 2 3 12 8 7 5 2 7 3 9 5 8 8 7 9 10 10
11 11 9 8 6 4 3 2 4 4 1 2 3 2 5 1 4 4 2 4 5 3 3 3 3 3 3 3 9 11 12 12 10 4 6 5 5 9 11 10 11 12 13 12
13 12 11 5 3 2 2 8 6 0 3 2 1 3 2 2 2 2 4 3 1 2 4 5 1 5 4 6 9 10 10 8 6 3 7 8 7 7 10 11 12 12 11 11
14 8 4 3 2 16 11 2 3 3 3 4 3 2 2 4 1 3 2 1 1 1 4 3 4 2 5 7 8 7 6 5 8 6 10 8 7 8 9 11 9 8 6 8
4 3 2 2 3 2 2 2 3 3 3 4 4 4 2 3 4 1 2 0 0 2 2 2 3 3 7 8 10 9 8 10 7 5 5 7 8 7 8 9 9 7 9 10
3 5 4 2 2 2 3 2 2 3 1 5 2 2 2 3 2 3 3 1 2 3 1 1 2 6 8 7 10 11 11 12 12 13 12 11 11 10 10 10 9 10 10 9
2 2 3 3 3 3 4 4 3 3 3 4 5 3 2 4 4 1 2 1 2 2 2 2 3 8 8 8 7 9 10 12 13 14 14 12 13 12 11 11 11 11 12 11
2 3 2 4 4 5 4 4 2 3 5 7 3 3 1 4 1 1 2 3 1 2 1 2 4 5 7 7 7 6 8 9 11 12 12 13 15 15 13 11 9 9 11 12
3 3 4 7 3 1 1 2 3 5 4 6 5 3 1 2 2 1 3 4 2 1 2 4 6 5 5 8 6 6 4 5 6 7 9 11 12 12 13 13 13 13 13 13
3 4 5 2 2 3 4 4 5 4 6 5 3 2 3 2 1 3 3 4 2 3 6 7 8 6 4 3 3 5 6 4 4 6 7 7 8 9 9 10 10 11 11 11
4 5 6 4 2 3 5 2 5 6 4 2 3 4 3 3 3 2 4 3 8 8 8 7 8 4 5 3 3 2 2 3 7 7 7 6 5 4 3 6 6 7 7 7
Wind_Direction
328 330 331 340 345 337 303 294 233 20 319 239 309 91 23 251 115 108 102 350 19 16 14 54 120 114 41 5 334 335 19 296 254 205 215 250 235 215 215 226 211 240 286 221
329 325 332 341 348 0 315 346 356 38 296 283 118 131 124 38 231 1 199 144 315 15 47 225 82 100 74 7 354 2 358 207 226 229 180 197 226 225 224 225 243 203 227 223
327 326 334 343 346 346 294 283 241 106 62 17 331 189 139 147 43 78 338 95 228 215 214 12 124 129 92 357 0 335 276 266 271 269 4 355 200 227 219 239 221 226 218 233
326 324 337 344 343 341 283 332 65 2 52 76 69 250 353 206 139 26 284 191 260 248 221 239 212 312 315 126 44 291 302 268 264 275 277 252 250 252 210 225 237 239 223 210
323 325 338 348 345 330 276 319 270 157 86 147 192 167 88 86 132 337 219 305 319 272 284 337 70 326 8 1 327 307 300 268 290 269 243 246 241 228 229 231 227 236 262 243
320 327 342 356 354 324 5 79 109 282 154 150 213 63 101 102 213 75 44 321 253 241 52 336 329 306 296 298 300 308 287 307 265 250 171 246 241 226 221 219 218 229 224 237
315 326 354 4 14 355 348 38 289 261 111 218 104 141 142 109 73 99 108 320 321 33 314 290 257 256 255 256 256 252 279 267 270 278 185 225 87 32 263 216 153 242 281 340
298 324 2 33 31 1 11 49 297 296 120 112 151 177 147 154 155 178 260 106 13 323 279 272 250 199 221 224 232 239 236 278 259 244 220 178 157 82 187 185 156 40 325 306
287 318 15 125 93 14 306 57 311 304 203 114 79 173 3 148 158 162 153 139 311 285 283 265 269 286 21 196 158 256 241 236 262 213 245 229 89 115 126 247 200 37 355 336
260 291 192 149 136 25 291 78 352 288 305 132 177 180 120 148 207 78 168 18 215 276 34 281 260 239 236 259 222 172 193 210 228 229 252 191 41 346 187 219 83 24 358 354
238 225 181 158 149 124 306 80 6 314 308 133 199 177 179 159 242 337 108 204 202 146 207 201 225 253 268 270 263 178 206 213 199 233 229 242 5 211 260 42 68 42 33 16
210 180 170 162 159 143 280 129 306 309 281 46 214 249 262 278 353 324 179 341 347 61 234 267 315 256 260 283 264 195 234 228 248 216 208 38 353 350 32 320 60 55 51 46
202 181 178 165 161 159 301 108 169 231 255 168 214 200 202 226 237 258 294 76 78 117 111 184 276 253 185 251 241 277 216 232 256 168 141 63 15 11 321 28 65 67 60 55
193 177 174 166 157 157 262 121 104 272 283 279 124 142 198 198 204 229 242 287 83 109 160 172 235 256 11 310 330 251 314 247 215 192 132 339 59 16 322 45 46 59 65 52
182 167 164 162 156 172 261 57 244 324 317 329 82 182 195 194 196 226 234 247 241 134 182 171 226 231 245 238 268 83 296 5 235 170 101 302 30 14 11 27 53 37 25 57
168 151 153 157 155 184 189 215 184 199 310 275 221 88 177 186 212 225 207 202 198 152 250 29 169 197 270 251 162 331 334 312 9 120 141 240 244 40 33 28 47 41 40 27
150 139 145 149 163 215 310 14 30 130 234 292 242 181 148 234 210 179 170 173 234 215 119 11 116 339 10 30 11 319 2 350 27 8 234 147 39 48 48 28 25 54 54 43
138 135 133 132 153 282 260 159 170 234 351 303 285 171 194 216 212 171 187 206 198 48 95 140 36 6 34 42 1 360 12 353 49 21 85 79 59 56 49 39 33 30 32 26
130 128 139 152 207 198 94 128 144 7 304 292 232 277 87 185 193 246 179 260 263 139 83 81 25 29 30 307 0 16 20 8 315 339 48 67 67 64 54 47 48 38 11 17
138 175 190 174 146 113 134 174 156 192 200 225 243 234 208 279 180 152 246 169 354 148 70 205 110 92 68 48 58 36 48 27 358 33 31 24 44 44 53 49 58 43 13 22
207 182 118 74 102 178 199 167 223 157 214 205 235 278 280 139 265 89 327 30 67 115 67 318 71 84 67 40 48 51 55 85 74 78 69 53 51 47 50 45 50 61 49 27
107 93 105 138 203 212 229 182 165 219 264 167 213 222 245 116 280 250 167 187 221 112 143 144 98 102 98 74 70 66 66 62 63 62 61 62 59 58 60 56 38 42 55 46
133 181 144 178 168 214 210 189 193 219 202 170 174 183 203 165 227 209 210 85 73 117 80 83 53 111 129 112 96 85 78 74 73 86 92 81 76 66 59 52 39 51 54 53
217 171 172 223 193 241 212 230 226 153 123 147 160 150 52 12 295 329 97 58 96 90 160 153 145 126 127 133 122 108 88 78 75 75 70 65 65 73 78 76 70 53 42 50
239 217 239 211 277 322 28 52 153 73 104 135 110 67 104 196 142 233 129 149 112 174 156 106 122 139 138 141 150 141 109 71 69 57 57 55 53 56 59 55 57 60 57 51
241 237 257 214 254 108 87 56 95 109 119 102 78 118 197 111 165 180 138 123 149 132 95 107 129 137 142 125 165 174 135 110 74 49 28 47 44 44 49 52 55 58 54 56
224 223 225 276 15 59 89 109 73 121 143 138 150 171 164 152 197 88 46 57 106 107 110 90 83 104 120 144 236 230 109 65 60 62 52 36 26 7 39 46 36 46 57 52